Hourly Data Report for October 26, 2013

All times are specified in Local Standard Time (LST). Add 1 hour to adjust for Daylight Saving Time where and when it is observed.

KITCHENER/WATERLOO
ONTARIO

43°27'39.000" N
80°22'43.000" W
321.60 m
6144239
71368
YKF

Download Data

Hourly Data (October 2013)
Hourly Data Report for October 26, 2013
Temp Definition
°C
Dew Point Temp Definition
°C
Rel Hum Definition
%
Wind Dir Definition
10's deg

Wind Spd Definition
km/h
Visibility Definition
km
Stn Press Definition
kPa
Hmdx Definition


Wind Chill Definition


Weather Definition


TIME
00:00 Legend Double Dagger 3.3 -1.1 73 21 22 16.1 97.86     LegendNANA
01:00 Legend Double Dagger 3.9 -1.3 69 21 24 16.1 97.75     LegendNANA
02:00 Legend Double Dagger 4.2 -2.4 62 22 32 16.1 97.64     LegendNANA
03:00 Legend Double Dagger 4.5 -2.2 62 21 32 16.1 97.49     LegendNANA
04:00 Legend Double Dagger 4.2 -0.4 72 22 48 16.1 97.40     LegendNANA
05:00 Legend Double Dagger 2.2 1.0 92 21 28 6.4 97.34     LegendNANA
06:00 Legend Double Dagger 0.7 0.1 96 20 24 4.8 97.23     LegendNANA
07:00 Legend Double Dagger 2.0 1.1 94 21 28 6.4 97.14     LegendNANA
08:00 Legend Double Dagger 2.5 1.5 93 22 30 9.7 97.11     LegendNANA
09:00 Legend Double Dagger 2.3 1.1 92 22 41 8.1 97.06     LegendNANA
10:00 Legend Double Dagger 1.8 0.9 94 22 35 6.4 97.01     LegendNANA
11:00 Legend Double Dagger 1.7 1.0 95 22 33 12.9 97.00     LegendNANA
12:00 Legend Double Dagger 3.0 1.7 91 23 35 16.1 96.96     LegendNANA
13:00 Legend Double Dagger 3.9 2.0 87 22 24 16.1 96.89     LegendNANA
14:00 Legend Double Dagger 4.0 1.5 84 22 26 16.1 96.87     LegendNANA
15:00 Legend Double Dagger 4.3 1.9 84 23 30 16.1 96.87     LegendNANA
16:00 Legend Double Dagger 5.5 1.9 78 22 26 16.1 96.84     LegendNANA
17:00 Legend Double Dagger 5.3 1.9 79 23 21 16.1 96.89     LegendNANA
18:00 Legend Double Dagger 4.4 2.6 88 23 22 16.1 96.93     LegendNANA
19:00 Legend Double Dagger 4.1 2.3 88 24 18 16.1 96.97     LegendNANA
20:00 Legend Double Dagger 4.4 2.5 87 26 21 16.1 97.02     LegendNANA
21:00 Legend Double Dagger 4.2 2.0 86 29 26 16.1 97.10     LegendNANA
22:00 Legend Double Dagger 3.5 1.7 88 27 22 16.1 97.14     LegendNANA
23:00 Legend Double Dagger 2.7 1.4 91 27 15 16.1 97.20     LegendNANA

Notes on Data Quality.

Legend

  • E = Estimated
  • M = Missing
  • NA = Not Available
  • ‡ = Partner data that is not subject to review by the National Climate Archives
Date modified: